Showing default

NAXING 1, 28221

Orbit data source: Space-Track

NAXING 1, 28221 is a payload satellite owned by CASC (CN) in SSO that was launched on Sun, 18 Apr 2004 UTC via a CHANG ZHENG 2C launch vehicle from the Xichang Space Center, China (XSC). Payload-class satellites include a variety of spacecraft equipped with specific instruments for various scientific and technological missions. These include communications satellites like Starlink; space stations such as the ISS; scientific satellites like the Hubble; Earth observation satellites from companies like Planet Labs, Umbra, and HawkEye 360; GPS; miniature CubeSats for education and research; and military/defense satellites.

Loading next visibility...
Identifier
28221, 2004-012B
Orbit
SSO
Country
Flag of CNCN / PRC
Related business
Manufacturer
Tsinghua
Mission
Civil Technology
Bus & Motor
NX, Unknown motor
Mass
25 kg wet, 25 kg dry
Launch date (UTC)
2004-04-18 (21 years ago)
Launch vehicle
CHANG ZHENG 2C
Launch site
Xichang Space Center, China (XSC)
Object type
Payload
Rocket body
Debris
Shape & HBR
Box, 0.1 m
Radar Cross Section
0.060 m², Medium (>0.1 m² and < 1m²)

Expand to show TLE details & history
Last TLE update: 11 hours ago

TLE from 11 hours ago
0 NAXING 1
1 28221U 04012B   25286.59940198  .00004200  00000-0  30521-3 0  9990
2 28221  98.0239 299.9747 0010727 195.8786 164.2104 15.04397378170155
Epoch: 2025-10-13T14:23Z
TLE epoch observation values (Epoch: 2025-10-13T14:23:08.331Z)
Latitude
-0.00001°
Longitude
61.79012°
Altitude
563.564 km
Speed
7.576 km/s
True Right ascension
19h 59m 53s
True Declination
0° 00' 00"
Sunlit
Object was in daylight at epoch
Visualization orbit readout
Latitude
Unknown
Longitude
Unknown
Altitude
Unknown
Speed
Unknown
Apparent Right ascension
Unknown
Apparent Declination
Unknown
Sunlit
N/A
Visualization observer readout
Local Sidereal Time
19:39:56
Azimuth
Unknown
Elevation
Unknown
Doppler factor
Unknown
Orbital elements
Apogee altitude
557.802 km
Perigee altitude
542.938 km
Semi-major axis
6,928.507 km
Eccentricity
0.00107
Inclination
98.0239°
RAAN
299.9747°
Arg. of periapsis
195.8786°
True anomaly
164.2438°
Mean anomaly
164.2104°
Eccentric anomaly
164.22711°
Mean motion
3.76343 °/min
Orbital period
95.66 mins
BSTAR
0.00030521
Loading maneuver chart data...
Computing Atmospheric mass density...
Loading historical data...
Loading historical data...
Loading historical data...
Loading historical data...
Loading historical data...
Loading historical data...
Loading historical data...

Documentation

Showing up to 5 results
|